Flag for Belarus Weather past 2 weeks in Barysaw, Belarus

Now
70 °F

Sunny.


Feels Like: 70 °F
Forecast: 52 / 67 °F
Wind: 6 mph from Northwest

Location: Minsk

Current Time: May 30, 2015 at 6:24:03 PM

Latest Report: May 30, 2015 at 6:00 PM


Visibility: 10 mi

Pressure: 29.83 "Hg

Humidity: 33%

Dew point: 39 °F

Location of BarysawLocation

Historic Weather in Barysaw — Graph

°F

Barysaw temperature yesterday

Maximum temperature yesterday: 66 °F (at 1:30 PM)
Minimum temperature yesterday: 41 °F (at 5:30 AM)
Average temperature yesterday: 56 °F

Past Weeks' High & Low Weather Summary

 TemperatureHumidityPressure
High82 °F (May 26, 5:30 PM)100% (May 17, 12:30 AM)30.18 "Hg (May 17, 12:30 AM)
Low34 °F (May 17, 2:00 AM)26% (May 20, 3:00 PM)29.62 "Hg (May 27, 7:00 AM)
Average55 °F74%29.91 "Hg
* Reported May 15 5:00 PM — May 30 5:00 PM, Barysaw, Weather by CustomWeather, © 2015

Note: Actual official high and low records may vary slightly from our data, if they occured in-between our weather recording intervals... More about our weather records

Advertising

Barysaw weather history for previous 24 hours

 ConditionsComfort  
Time TempWeatherWind HumidityBarometerVisibility
5:00 PM
Sat, May 30
70 °FSunny.6 mph33%29.83 "Hg10 mi
4:30 PM70 °FSunny.10 mph33%29.83 "Hg10 mi
4:00 PM70 °FPassing clouds.10 mph35%29.83 "HgN/A
3:30 PM68 °FPassing clouds.10 mph40%29.86 "HgN/A
3:00 PM68 °FSunny.10 mph43%29.86 "Hg10 mi
2:30 PM68 °FSunny.10 mph43%29.86 "Hg10 mi
2:00 PM68 °FSunny.10 mph43%29.86 "Hg10 mi
1:30 PM66 °FSunny.10 mph46%29.86 "Hg10 mi
1:00 PM68 °FPassing clouds.8 mph40%29.86 "HgN/A
12:30 PM68 °FSunny.6 mph43%29.86 "Hg10 mi
12:00 PM66 °FPassing clouds.6 mph46%29.86 "HgN/A
11:30 AM66 °FScattered clouds.6 mph46%29.89 "HgN/A
11:00 AM64 °FScattered clouds.8 mph52%29.89 "HgN/A
10:30 AM64 °FSunny.10 mph52%29.89 "Hg10 mi
10:00 AM63 °FPassing clouds.8 mph59%29.89 "HgN/A
9:30 AM61 °FSunny.8 mph63%29.89 "Hg10 mi
9:00 AM59 °FSunny.8 mph72%29.89 "Hg10 mi
8:30 AM57 °FPassing clouds.6 mph72%29.89 "HgN/A
8:00 AM55 °FSunny.8 mph82%29.89 "Hg10 mi
7:30 AM55 °FSunny.8 mph82%29.89 "Hg10 mi
7:00 AM52 °FSunny.8 mph94%29.89 "Hg10 mi
6:30 AM50 °FSunny.6 mph94%29.89 "Hg10 mi
6:00 AM48 °FSunny.6 mph94%29.89 "Hg10 mi
5:30 AM46 °FClear.3 mph93%29.89 "Hg10 mi
5:00 AM48 °FClear.3 mph94%29.89 "Hg10 mi
4:30 AM48 °FClear.6 mph94%29.89 "Hg10 mi
4:00 AM48 °FClear.6 mph94%29.89 "Hg10 mi
3:30 AM48 °FClear.3 mph94%29.89 "Hg10 mi
3:00 AM50 °FClear.6 mph88%29.89 "Hg10 mi
2:30 AM50 °FClear.6 mph88%29.89 "Hg10 mi
2:00 AM48 °FClear.6 mph87%29.89 "Hg10 mi
1:30 AM50 °FClear.6 mph82%29.89 "Hg10 mi
1:00 AM50 °FClear.6 mph76%29.89 "Hg10 mi
12:30 AM48 °FPassing clouds.3 mph87%29.89 "HgN/A
11:30 PM
Fri, May 29
50 °FClear.1 mph82%29.86 "Hg10 mi
11:00 PM50 °FClear.No wind88%29.86 "Hg10 mi
10:30 PM54 °FClear.No wind72%29.86 "Hg10 mi
10:00 PM55 °FSunny.1 mph67%29.86 "Hg10 mi
9:30 PM57 °FSunny.No wind67%29.86 "Hg10 mi
9:00 PM61 °FSunny.3 mph48%29.86 "Hg10 mi
8:30 PM63 °FSunny.3 mph49%29.83 "Hg10 mi
8:00 PM63 °FSunny.3 mph49%29.83 "Hg10 mi
7:30 PM63 °FSunny.6 mph45%29.83 "Hg10 mi
7:00 PM64 °FSunny.8 mph40%29.83 "Hg10 mi
6:30 PM64 °FSunny.10 mph40%29.83 "Hg10 mi
6:00 PM64 °FPassing clouds.10 mph40%29.83 "HgN/A
Weather by CustomWeather, © 2015

See weather overviewHow to use our weather pages